GLD1134 SBBV-TGPY

Flight info

Callsign GLD1134
Flight time 1h 16m
Altitude 37000
Route DCT ILNER UM402 POS DCT IMORO DCT
Aircraft C750/M-SDFGIRY/S

Departure

Time 2026-04-25 18:26
Airport Atlas Brasil Cantanhede International Airport (SBBV)

Arrival

Time 2026-04-25 19:42
Airport Maurice Bishop International Airport (TGPY)
Time Latitude Longitude Altitude Speed Heading
2026-04-25 17:58 2.84383 -60.68836 276 ft 0 kts 327°
2026-04-25 18:17 2.84394 -60.68842 276 ft 6 kts 333°
2026-04-25 18:18 2.84451 -60.68861 276 ft 10 kts 342°
2026-04-25 18:18 2.84513 -60.68883 276 ft 9 kts 337°
2026-04-25 18:18 2.84564 -60.68911 277 ft 8 kts 329°
2026-04-25 18:18 2.84586 -60.68923 277 ft 0 kts 332°
2026-04-25 18:19 2.84589 -60.68925 277 ft 3 kts 333°
2026-04-25 18:19 2.84634 -60.68950 277 ft 12 kts 317°
2026-04-25 18:19 2.84610 -60.69047 277 ft 19 kts 244°
2026-04-25 18:19 2.84538 -60.69186 275 ft 26 kts 243°
2026-04-25 18:20 2.84478 -60.69287 274 ft 13 kts 216°
2026-04-25 18:20 2.84403 -60.69277 275 ft 10 kts 154°
2026-04-25 18:20 2.84334 -60.69264 276 ft 11 kts 221°
2026-04-25 18:20 2.84293 -60.69339 276 ft 14 kts 243°
2026-04-25 18:21 2.84243 -60.69434 276 ft 17 kts 242°
2026-04-25 18:21 2.84185 -60.69548 276 ft 20 kts 244°
2026-04-25 18:21 2.84119 -60.69677 276 ft 22 kts 243°
2026-04-25 18:21 2.84045 -60.69821 276 ft 23 kts 243°
2026-04-25 18:22 2.83983 -60.69941 276 ft 14 kts 243°
2026-04-25 18:22 2.83970 -60.69966 276 ft 10 kts 243°
2026-04-25 18:22 2.83952 -60.70042 276 ft 6 kts 297°
2026-04-25 18:22 2.83983 -60.70064 276 ft 5 kts 342°
2026-04-25 18:23 2.84012 -60.70066 276 ft 4 kts
2026-04-25 18:23 2.84032 -60.70065 277 ft 2 kts
2026-04-25 18:23 2.84046 -60.70064 277 ft 2 kts
2026-04-25 18:23 2.84064 -60.70064 277 ft 3 kts 354°
2026-04-25 18:24 2.84086 -60.70060 277 ft 4 kts 30°
2026-04-25 18:24 2.84102 -60.70038 277 ft 5 kts 62°
2026-04-25 18:24 2.84104 -60.70034 277 ft 0 kts 63°
2026-04-25 18:25 2.84108 -60.70027 277 ft 5 kts 63°
2026-04-25 18:25 2.84247 -60.69758 276 ft 101 kts 63°
2026-04-25 18:25 2.84684 -60.68897 387 ft 159 kts 64°
2026-04-25 18:26 2.85233 -60.67815 755 ft 188 kts 63°
2026-04-25 18:26 2.85872 -60.66565 1198 ft 217 kts 64°
2026-04-25 18:26 2.86603 -60.65118 1712 ft 248 kts 63°
2026-04-25 18:26 2.87440 -60.63530 2532 ft 260 kts 62°
2026-04-25 18:27 2.88576 -60.62131 3542 ft 265 kts 37°
2026-04-25 18:27 2.90285 -60.61455 4615 ft 268 kts 10°
2026-04-25 18:27 2.92160 -60.61569 5565 ft 273 kts 352°
2026-04-25 18:27 2.94042 -60.61916 6518 ft 278 kts 350°
2026-04-25 18:28 2.95963 -60.62263 7481 ft 282 kts 351°
2026-04-25 18:28 2.97912 -60.62591 8544 ft 286 kts 351°
2026-04-25 18:28 2.99887 -60.62925 9582 ft 290 kts 350°
2026-04-25 18:29 3.04074 -60.63650 10573 ft 330 kts 350°
2026-04-25 18:29 3.06433 -60.64054 10720 ft 357 kts 350°
2026-04-25 18:30 3.13865 -60.65332 12964 ft 369 kts 351°
2026-04-25 18:30 3.16408 -60.65769 13711 ft 373 kts 351°
2026-04-25 18:30 3.18980 -60.66211 14365 ft 377 kts 351°
2026-04-25 18:30 3.21581 -60.66658 15017 ft 381 kts 351°
2026-04-25 18:31 3.24206 -60.67110 15673 ft 385 kts 351°
2026-04-25 18:31 3.26860 -60.67566 16358 ft 389 kts 351°
2026-04-25 18:31 3.29539 -60.68027 17053 ft 393 kts 351°
2026-04-25 18:31 3.32254 -60.68493 17764 ft 397 kts 351°
2026-04-25 18:32 3.34997 -60.68965 18445 ft 401 kts 351°
2026-04-25 18:32 3.37769 -60.69442 19069 ft 406 kts 351°
2026-04-25 18:32 3.40565 -60.69923 19718 ft 410 kts 351°
2026-04-25 18:32 3.43393 -60.70409 20387 ft 415 kts 351°
2026-04-25 18:33 3.46257 -60.70902 21050 ft 419 kts 351°
2026-04-25 18:33 3.49148 -60.71399 21713 ft 424 kts 351°
2026-04-25 18:33 3.52077 -60.71903 22377 ft 429 kts 351°
2026-04-25 18:33 3.55035 -60.72412 23050 ft 433 kts 351°
2026-04-25 18:34 3.58026 -60.72926 23670 ft 438 kts 351°
2026-04-25 18:34 3.61015 -60.73440 24229 ft 442 kts 351°
2026-04-25 18:34 3.64063 -60.73965 24811 ft 446 kts 351°
2026-04-25 18:34 3.67134 -60.74494 25390 ft 449 kts 351°
2026-04-25 18:35 3.70224 -60.75025 25975 ft 453 kts 351°
2026-04-25 18:35 3.73356 -60.75564 26550 ft 456 kts 351°
2026-04-25 18:35 3.76499 -60.76105 27135 ft 460 kts 351°
2026-04-25 18:35 3.79674 -60.76652 27712 ft 464 kts 351°
2026-04-25 18:36 3.82864 -60.77201 28281 ft 468 kts 351°
2026-04-25 18:36 3.86096 -60.77757 28837 ft 472 kts 351°
2026-04-25 18:36 3.89366 -60.78156 29300 ft 476 kts 356°
2026-04-25 18:36 3.92679 -60.78434 29848 ft 479 kts 356°
2026-04-25 18:37 3.96019 -60.78728 30292 ft 483 kts 355°
2026-04-25 18:37 3.99373 -60.79047 30720 ft 486 kts 355°
2026-04-25 18:37 4.02748 -60.79361 31286 ft 486 kts 356°
2026-04-25 18:37 4.06109 -60.79660 31926 ft 484 kts 356°
2026-04-25 18:38 4.09422 -60.79955 32495 ft 484 kts 356°
2026-04-25 18:38 4.12772 -60.80262 33087 ft 483 kts 356°
2026-04-25 18:38 4.16119 -60.80571 33679 ft 483 kts 356°
2026-04-25 18:38 4.19465 -60.80874 34233 ft 482 kts 356°
2026-04-25 18:39 4.22801 -60.81174 34779 ft 481 kts 356°
2026-04-25 18:39 4.26133 -60.81477 35337 ft 479 kts 356°
2026-04-25 18:39 4.29455 -60.81781 35894 ft 478 kts 356°
2026-04-25 18:39 4.32776 -60.82083 36482 ft 476 kts 356°
2026-04-25 18:40 4.34983 -60.82283 36857 ft 474 kts 356°
2026-04-25 18:40 4.39447 -60.82687 36903 ft 490 kts 356°
2026-04-25 18:40 4.45195 -60.83210 36920 ft 509 kts 356°
2026-04-25 18:41 4.52365 -60.83863 36938 ft 525 kts 356°
2026-04-25 18:41 4.59736 -60.84534 36938 ft 536 kts 356°
2026-04-25 18:42 4.65944 -60.85099 36944 ft 540 kts 356°
2026-04-25 18:42 4.74665 -60.85900 36947 ft 541 kts 356°
2026-04-25 18:43 4.82178 -60.86618 36948 ft 542 kts 356°
2026-04-25 18:43 4.89697 -60.87318 36949 ft 542 kts 356°
2026-04-25 18:44 4.97209 -60.88031 36953 ft 542 kts 355°
2026-04-25 18:44 5.04721 -60.88734 36953 ft 542 kts 355°
2026-04-25 18:45 5.12187 -60.89440 36955 ft 542 kts 355°
2026-04-25 18:45 5.19700 -60.90147 36953 ft 542 kts 355°
2026-04-25 18:46 5.27215 -60.90856 36946 ft 542 kts 355°
2026-04-25 18:46 5.34729 -60.91564 36935 ft 542 kts 355°
2026-04-25 18:47 5.42238 -60.92271 36932 ft 541 kts 355°
2026-04-25 18:47 5.49747 -60.92940 36930 ft 541 kts 356°
2026-04-25 18:48 5.57256 -60.93620 36928 ft 542 kts 355°
2026-04-25 18:48 5.64788 -60.94299 36926 ft 542 kts 355°
2026-04-25 18:49 5.72316 -60.94978 36923 ft 543 kts 355°
2026-04-25 18:49 5.79837 -60.95658 36925 ft 543 kts 355°
2026-04-25 18:50 5.87378 -60.96337 36923 ft 543 kts 355°
2026-04-25 18:50 5.94907 -60.97018 36933 ft 544 kts 355°
2026-04-25 18:51 6.01178 -60.97583 36927 ft 543 kts 355°
2026-04-25 18:51 6.09982 -60.98379 36919 ft 543 kts 355°
2026-04-25 18:52 6.17503 -60.99059 36922 ft 542 kts 355°
2026-04-25 18:52 6.25022 -60.99739 36915 ft 542 kts 355°
2026-04-25 18:53 6.32538 -61.00418 36909 ft 542 kts 355°
2026-04-25 18:53 6.40057 -61.01098 36904 ft 542 kts 355°
2026-04-25 18:54 6.51306 -61.02116 36895 ft 543 kts 355°
2026-04-25 18:55 6.58836 -61.02797 36888 ft 543 kts 355°
2026-04-25 18:55 6.66377 -61.03480 36888 ft 544 kts 355°
2026-04-25 18:56 6.73916 -61.04166 36884 ft 544 kts 355°
2026-04-25 18:56 6.81453 -61.04892 36877 ft 544 kts 355°
2026-04-25 18:57 6.88949 -61.05593 36875 ft 544 kts 355°
2026-04-25 18:57 6.96497 -61.06312 36872 ft 544 kts 355°
2026-04-25 18:58 7.04051 -61.07024 36874 ft 545 kts 355°
2026-04-25 18:58 7.15331 -61.08094 36867 ft 544 kts 355°
2026-04-25 18:59 7.30426 -61.09523 36875 ft 544 kts 355°
2026-04-25 19:00 7.41752 -61.10595 36866 ft 545 kts 355°
2026-04-25 19:01 7.53071 -61.11668 36867 ft 544 kts 355°
2026-04-25 19:01 7.60627 -61.12385 36874 ft 544 kts 355°
2026-04-25 19:02 7.71905 -61.13455 36875 ft 545 kts 355°
2026-04-25 19:03 7.80724 -61.14293 36872 ft 544 kts 355°
2026-04-25 19:03 7.90762 -61.15246 36876 ft 543 kts 355°
2026-04-25 19:04 8.02051 -61.16319 36872 ft 543 kts 354°
2026-04-25 19:05 8.17089 -61.17749 36871 ft 542 kts 354°
2026-04-25 19:06 8.24612 -61.18465 36874 ft 542 kts 354°
2026-04-25 19:06 8.35897 -61.19539 36873 ft 542 kts 354°
2026-04-25 19:07 8.47164 -61.20612 36874 ft 542 kts 354°
2026-04-25 19:08 8.58431 -61.21633 36880 ft 542 kts 354°
2026-04-25 19:09 8.70920 -61.22782 36878 ft 542 kts 354°
2026-04-25 19:10 8.84748 -61.24050 36879 ft 543 kts 354°
2026-04-25 19:10 8.92236 -61.24734 36884 ft 543 kts 354°
2026-04-25 19:11 8.99768 -61.25426 36891 ft 544 kts 354°
2026-04-25 19:11 9.07314 -61.26117 36890 ft 544 kts 354°
2026-04-25 19:12 9.14865 -61.26811 36896 ft 544 kts 354°
2026-04-25 19:12 9.22416 -61.27503 36891 ft 544 kts 354°
2026-04-25 19:13 9.29976 -61.28198 36897 ft 545 kts 354°
2026-04-25 19:13 9.37523 -61.28891 36904 ft 545 kts 354°
2026-04-25 19:14 9.45072 -61.29585 36904 ft 545 kts 354°
2026-04-25 19:14 9.52574 -61.30275 36901 ft 545 kts 354°
2026-04-25 19:15 9.60130 -61.30970 36902 ft 545 kts 354°
2026-04-25 19:15 9.67685 -61.31665 36910 ft 544 kts 354°
2026-04-25 19:16 9.75234 -61.32360 36907 ft 544 kts 354°
2026-04-25 19:16 9.82777 -61.33055 36910 ft 544 kts 354°
2026-04-25 19:17 9.90328 -61.33751 36910 ft 544 kts 354°
2026-04-25 19:17 9.97843 -61.34489 36916 ft 544 kts 354°
2026-04-25 19:18 10.05383 -61.35219 36918 ft 544 kts 354°
2026-04-25 19:18 10.12912 -61.35952 36914 ft 543 kts 354°
2026-04-25 19:19 10.20452 -61.36686 36916 ft 543 kts 354°
2026-04-25 19:19 10.26700 -61.37292 36852 ft 544 kts 354°
2026-04-25 19:19 10.29015 -61.37519 36362 ft 548 kts 354°
2026-04-25 19:20 10.35248 -61.38127 35182 ft 534 kts 354°
2026-04-25 19:20 10.37746 -61.38369 34707 ft 530 kts 353°
2026-04-25 19:20 10.41393 -61.38724 34019 ft 525 kts 353°
2026-04-25 19:20 10.45013 -61.39078 33296 ft 519 kts 353°
2026-04-25 19:21 10.48576 -61.39687 32600 ft 525 kts 346°
2026-04-25 19:21 10.55630 -61.41546 31239 ft 518 kts 344°
2026-04-25 19:21 10.59098 -61.42436 30559 ft 512 kts 346°
2026-04-25 19:22 10.62554 -61.43277 29870 ft 507 kts 346°
2026-04-25 19:22 10.65953 -61.44131 29176 ft 500 kts 345°
2026-04-25 19:22 10.72631 -61.45868 27863 ft 490 kts 346°
2026-04-25 19:23 10.75928 -61.46695 27222 ft 484 kts 346°
2026-04-25 19:23 10.82363 -61.48332 25967 ft 475 kts 345°
2026-04-25 19:23 10.85554 -61.49154 25343 ft 470 kts 346°
2026-04-25 19:24 10.88710 -61.49956 24727 ft 465 kts 346°
2026-04-25 19:24 10.91838 -61.50749 24120 ft 459 kts 346°
2026-04-25 19:24 10.97969 -61.52318 22864 ft 448 kts 346°
2026-04-25 19:25 11.03987 -61.53852 21693 ft 444 kts 346°
2026-04-25 19:25 11.06978 -61.54616 21108 ft 441 kts 346°
2026-04-25 19:25 11.09945 -61.55375 20522 ft 437 kts 346°
2026-04-25 19:26 11.12879 -61.56124 19953 ft 433 kts 346°
2026-04-25 19:26 11.15748 -61.56857 19392 ft 423 kts 346°
2026-04-25 19:26 11.18560 -61.57576 18841 ft 411 kts 346°
2026-04-25 19:26 11.21298 -61.58277 18307 ft 396 kts 346°
2026-04-25 19:27 11.23906 -61.58943 17754 ft 376 kts 346°
2026-04-25 19:27 11.25595 -61.59375 17420 ft 364 kts 346°
2026-04-25 19:27 11.28756 -61.60184 16807 ft 344 kts 346°
2026-04-25 19:27 11.31047 -61.60770 16368 ft 335 kts 346°
2026-04-25 19:28 11.33295 -61.61345 15932 ft 332 kts 346°
2026-04-25 19:28 11.35535 -61.61918 15498 ft 331 kts 346°
2026-04-25 19:28 11.37759 -61.62488 15064 ft 330 kts 346°
2026-04-25 19:28 11.39982 -61.63057 14631 ft 328 kts 346°
2026-04-25 19:29 11.42196 -61.63623 14199 ft 327 kts 346°
2026-04-25 19:29 11.44382 -61.64184 13771 ft 325 kts 346°
2026-04-25 19:29 11.46569 -61.64744 13310 ft 322 kts 346°
2026-04-25 19:29 11.48729 -61.65297 12883 ft 319 kts 346°
2026-04-25 19:30 11.50864 -61.65873 12454 ft 316 kts 342°
2026-04-25 19:30 11.52757 -61.66986 12010 ft 313 kts 321°
2026-04-25 19:30 11.54456 -61.68374 11647 ft 313 kts 320°
2026-04-25 19:30 11.56167 -61.69754 11235 ft 313 kts 321°
2026-04-25 19:31 11.57884 -61.71109 10823 ft 311 kts 321°
2026-04-25 19:31 11.59586 -61.72457 10410 ft 308 kts 321°
2026-04-25 19:31 11.61273 -61.73805 10000 ft 306 kts 321°
2026-04-25 19:31 11.62945 -61.75141 9574 ft 304 kts 321°
2026-04-25 19:32 11.64595 -61.76455 9167 ft 297 kts 321°
2026-04-25 19:32 11.66197 -61.77731 8777 ft 286 kts 321°
2026-04-25 19:32 11.67739 -61.78960 8406 ft 277 kts 321°
2026-04-25 19:32 11.68734 -61.79755 8162 ft 271 kts 321°
2026-04-25 19:33 11.70692 -61.81316 7697 ft 263 kts 321°
2026-04-25 19:33 11.72119 -61.82455 7350 ft 259 kts 321°
2026-04-25 19:33 11.73520 -61.83573 7021 ft 253 kts 321°
2026-04-25 19:33 11.74907 -61.84680 6689 ft 253 kts 321°
2026-04-25 19:34 11.76302 -61.85793 6356 ft 255 kts 321°
2026-04-25 19:34 11.77693 -61.86903 6006 ft 254 kts 321°
2026-04-25 19:34 11.79084 -61.88014 5666 ft 253 kts 322°
2026-04-25 19:34 11.80468 -61.89119 5328 ft 252 kts 322°
2026-04-25 19:35 11.81830 -61.90206 5000 ft 251 kts 322°
2026-04-25 19:35 11.83206 -61.91306 4670 ft 251 kts 322°
2026-04-25 19:35 11.84577 -61.92401 4332 ft 250 kts 322°
2026-04-25 19:35 11.85927 -61.93478 3994 ft 240 kts 322°
2026-04-25 19:36 11.87221 -61.94513 3685 ft 234 kts 322°
2026-04-25 19:36 11.88500 -61.95535 3373 ft 232 kts 322°
2026-04-25 19:36 11.89774 -61.96540 3132 ft 232 kts 324°
2026-04-25 19:36 11.91255 -61.97098 2814 ft 226 kts 358°
2026-04-25 19:37 11.92783 -61.97075 3050 ft 223 kts
2026-04-25 19:37 11.94293 -61.97068 2807 ft 212 kts
2026-04-25 19:37 11.95752 -61.97071 2571 ft 207 kts
2026-04-25 19:37 11.97170 -61.97066 2366 ft 207 kts
2026-04-25 19:38 11.98597 -61.96991 2143 ft 204 kts 13°
2026-04-25 19:38 11.99783 -61.96267 1959 ft 194 kts 49°
2026-04-25 19:38 12.00414 -61.95096 1980 ft 191 kts 78°
2026-04-25 19:38 12.00483 -61.93743 2020 ft 191 kts 92°
2026-04-25 19:39 12.00472 -61.92411 2024 ft 181 kts 92°
2026-04-25 19:39 12.00469 -61.91146 1995 ft 177 kts 91°
2026-04-25 19:39 12.00463 -61.89873 1857 ft 182 kts 91°
2026-04-25 19:39 12.00457 -61.88579 1666 ft 182 kts 92°
2026-04-25 19:40 12.00451 -61.87310 1417 ft 179 kts 91°
2026-04-25 19:40 12.00445 -61.86059 1180 ft 173 kts 91°
2026-04-25 19:40 12.00440 -61.84925 956 ft 143 kts 90°
2026-04-25 19:40 12.00435 -61.83988 778 ft 124 kts 92°
2026-04-25 19:41 12.00431 -61.83131 626 ft 117 kts 93°
2026-04-25 19:41 12.00425 -61.82297 478 ft 118 kts 91°
2026-04-25 19:41 12.00422 -61.81453 334 ft 120 kts 94°
2026-04-25 19:41 12.00422 -61.81166 291 ft 120 kts 92°
2026-04-25 19:42 12.00412 -61.79775 71 ft 114 kts 89°
2026-04-25 19:42 12.00418 -61.79074 63 ft 85 kts 90°
2026-04-25 19:42 12.00408 -61.78651 61 ft 20 kts 89°
2026-04-25 19:42 12.00429 -61.78600 60 ft 7 kts 24°
2026-04-25 19:43 12.00469 -61.78597 63 ft 3 kts
2026-04-25 19:43 12.00481 -61.78597 56 ft 4 kts
2026-04-25 19:43 12.00504 -61.78596 63 ft 0 kts 360°
2026-04-25 19:44 12.00526 -61.78596 67 ft 5 kts 360°
2026-04-25 19:44 12.00548 -61.78598 64 ft 1 kts 343°
2026-04-25 19:44 12.00565 -61.78611 69 ft 5 kts 304°
2026-04-25 19:44 12.00568 -61.78659 69 ft 7 kts 269°
2026-04-25 19:45 12.00568 -61.78706 69 ft 6 kts 270°
2026-04-25 19:45 12.00589 -61.78724 70 ft 3 kts
2026-04-25 19:45 12.00603 -61.78717 70 ft 2 kts 35°
2026-04-25 19:45 12.00622 -61.78701 66 ft 6 kts 40°
2026-04-25 19:46 12.00626 -61.78697 66 ft 0 kts 42°
2026-04-25 19:57 12.00626 -61.78698 70 ft 0 kts 42°
2026-04-25 20:10 12.00625 -61.78698 70 ft 0 kts 42°